Location: Unspecified
(0.0000°N, 0.0000°E)
Time: 15:37:42
(UTC+00:00)

HuskySat-1 - Pass Details

Date: 26 October 2021
Orbit: 443 x 456 km, 51.6° (Epoch: 29 November)

Event Time Altitude Azimuth Distance (km) Brightness Sun altitude
Rises 18:07:02 0° 302° (WNW) 2,455 ? -5.6°
Reaches altitude 10° 18:09:29 10° 287° (WNW) 1,588 ? -6.2°
Maximum altitude 18:12:20 22° 234° (SW) 1,045 ? -6.9°
Drops below altitude 10° 18:15:11 10° 181° (S) 1,597 ? -7.6°
Sets 18:17:40 0° 166° (SSE) 2,475 ? -8.2°
